{"data":{"norad_id":51744,"intl_designator":"2022-016AG","name":"STARLINK-3452","alt_names":[],"object_type":"PAYLOAD","status":"ACTIVE","operator":null,"country":"US","launch_date":"2022-02-21","launch_site_code":"AFETR","launch_vehicle":null,"mission":null,"orbit_class":"UNKNOWN","rcs_meters":null,"size_class":null,"mass_kg":null,"dimensions":null,"purposes":["comms"],"wikipedia_slug":null,"has_3d_model":false,"image_url":null,"decayed_at":null,"tle_current":{"epoch":"2026-09-20T04:12:38.790144Z","epoch_age_seconds":79701,"freshness":"FRESH","line1":"1 51744U 22016AG  26263.17544896 -.00001114  00000+0 -22539-4 0  9998","line2":"2 51744  53.1587 151.4444 0001180  99.0458 261.0678 15.33541327253127","mean_motion":15.33541327,"eccentricity":0.000118,"inclination_deg":53.1587,"raan_deg":151.4444,"arg_perigee_deg":99.0458,"mean_anomaly_deg":261.0678,"bstar":-2.2539e-5,"rev_number":25312,"period_min":93.900306085458,"perigee_km":464.44906765667,"apogee_km":466.06410854346,"semimajor_km":6843.3935881001,"source":"CELESTRAK","updated_at":"2026-09-20T09:00:39.932012Z"}}}